loading
DOY 171 | 2024-06-19T23:55:34Z

THOR AGENA B DEB, 742

Orbit data source: Space-Track

THOR AGENA B DEB, 742 is space debris in LEO originally from a launch on Sat, 25 Jan 1964 UTC launched from the Air Force Western Test Range (AFWTR). Debris objects in space refer to the collection of defunct objects orbiting the Earth. Examples of debris include non-operational satellites, rocket bodies, and fragments generated from explosions, collisions, or faulty payload assembly.

Loading next visibility...
Loading greatness...
THOR AGENA B DEB details
NORAD ID742
COSPAR ID
1964-004C
Orbit
LEO
Last TLE update10 hours ago
Origin
Flag of USNASA LaRC (US)
ManufacturerGrummann
BusEcho canister
MotorUnknown
Mass35 kg wet, 35 kg dry
Launch date (UTC)
1964-01-25 (60 years ago)
Launch vehicleUnknown
Launch site
Air Force Western Test Range (AFWTR)
Object type
Payload
Rocket body
Debris
Radar Cross Section0.94 m², Medium (>0.1 m² and < 1m²)
Predictive object data (real-time)
Latitude-10.74198°
Longitude-2.64279°
Altitude1,125.699 km
Speed7.309 km/s
Apparent Right ascension04h 51m 58s
Apparent Declination-44° 58' 41"
Sunlit
Object is in daylight
Predictive observer data (real-time)
Local Sidereal Time10:49:53
Azimuth232.321° WSW
Elevation-26.653°
Doppler factor1
Orbital elements
Apogee1,288.98 km
Perigee1,028.264 km
Semi-major axis7,536.759 km
Eccentricity0.0172963
Inclination81.4668°
RAAN293.3494°
Arg. of periapsis118.8461°
True anomaly241.26602°
Mean anomaly243.0148°
Mean motion3.31716 °/min
BSTAR0.00011489
Period108.53 mins
Definitive object data (Epoch: 2024-06-19T13:55:57.017Z)
Latitude-0.00003°
Longitude176.07695°
Altitude1,225.092 km
Speed7.213 km/s
True Right ascension19h 33m 23s
True Declination0° 00' 00"
Sunlit
Object was in full shadow at TLE epoch
TLE from 10 hours ago
0 THOR AGENA B DEB
1 00742U 64004C   24171.58052104  .00000067  00000-0  11489-3 0  9996
2 00742  81.4668 293.3494 0172963 118.8461 243.0148 13.26143169920918
Epoch: 2024-06-19T13:55Z
No data available

THOR AGENA B DEB Visibility forecast

Observer location: 39.9160978°, -105.1181434, 0m alt.

THOR AGENA B DEB is not visible in the next 10 days
Span
Click to sort rows by Start time (UTC) header in descending order
Start Az.
Max El. time (UTC)
Max El. Az.
Max El.
End time (UTC)
End Az.